Powrót do katalogu

SL-12 R/B(2)

AktywnyGEO
NORAD 19094·ROCKET BODY·🇷🇺 Russia

Wystrzelony May 6, 1988 z Baikonur Cosmodrome

Loading…

TLE

ŚwieżeSource: Space-Track

Epoka: Sep 14, 2026, 09:48 UTC

1 19094U 88036E   26257.40836410 -.00000068  00000-0  00000-0 0  9991
2 19094  10.0266 322.1035 0021717 190.7359 216.1579  1.01118705122738

Śledź SL-12 R/B(2) w czasie rzeczywistym z AllMySat

Download on the App Store